TimeEDT,TemperatureF,Dew PointF,Humidity,Sea Level PressureIn,VisibilityMPH,Wind Direction,Wind SpeedMPH,Gust SpeedMPH,PrecipitationIn,Events,Conditions,WindDirDegrees,DateUTC
12:20 AM,59.0,57.2,94,30.10,10.0,Calm,Calm,-,N/A,,Overcast,0,2012-10-27 04:20:00
12:55 AM,58.1,57.0,96,30.10,10.0,West,3.5,-,N/A,,Overcast,270,2012-10-27 04:55:00
1:17 AM,57.2,57.2,100,30.10,10.0,NNE,10.4,-,N/A,,Overcast,20,2012-10-27 05:17:00
1:37 AM,55.4,50.0,82,30.10,10.0,North,8.1,-,N/A,,Overcast,10,2012-10-27 05:37:00
1:49 AM,55.4,50.0,82,30.09,9.0,North,8.1,-,N/A,,Overcast,10,2012-10-27 05:49:00
1:55 AM,54.9,49.8,83,30.09,9.0,North,6.9,-,N/A,,Overcast,10,2012-10-27 05:55:00
2:44 AM,53.6,48.2,82,30.09,6.0,NE,10.4,-,N/A,,Haze,40,2012-10-27 06:44:00
2:55 AM,54.0,48.7,82,30.09,6.0,NNE,6.9,-,N/A,,Haze,30,2012-10-27 06:55:00
3:55 AM,53.6,49.1,85,30.07,5.0,NE,9.2,-,N/A,,Haze,40,2012-10-27 07:55:00
4:55 AM,53.1,49.3,87,30.08,7.0,North,6.9,-,N/A,,Overcast,10,2012-10-27 08:55:00
5:07 AM,53.6,48.2,82,30.08,8.0,North,5.8,-,N/A,,Overcast,350,2012-10-27 09:07:00
5:22 AM,51.8,48.2,88,30.08,8.0,North,4.6,-,N/A,,Overcast,350,2012-10-27 09:22:00
5:24 AM,51.8,48.2,88,30.08,8.0,North,5.8,-,N/A,,Overcast,360,2012-10-27 09:24:00
5:34 AM,51.8,48.2,88,30.08,7.0,North,5.8,-,N/A,,Overcast,10,2012-10-27 09:34:00
5:44 AM,51.8,48.2,88,30.07,8.0,North,5.8,-,N/A,,Overcast,360,2012-10-27 09:44:00
5:55 AM,51.8,48.0,87,30.07,9.0,North,6.9,-,N/A,,Overcast,10,2012-10-27 09:55:00
6:17 AM,51.8,48.2,88,30.06,8.0,North,5.8,-,N/A,,Overcast,10,2012-10-27 10:17:00
6:24 AM,51.8,48.2,88,30.06,7.0,NNE,8.1,-,N/A,,Overcast,20,2012-10-27 10:24:00
6:33 AM,51.8,48.2,88,30.06,5.0,NNE,5.8,-,N/A,,Overcast,30,2012-10-27 10:33:00
6:40 AM,51.8,48.2,88,30.06,5.0,NNE,5.8,-,N/A,,Overcast,30,2012-10-27 10:40:00
6:41 AM,51.8,48.2,88,30.06,5.0,NNE,5.8,-,N/A,,Overcast,30,2012-10-27 10:41:00
6:50 AM,51.8,48.2,88,30.06,5.0,NE,5.8,-,N/A,,Overcast,40,2012-10-27 10:50:00
6:55 AM,51.4,48.2,89,30.06,5.0,NE,6.9,-,N/A,,Overcast,40,2012-10-27 10:55:00
7:29 AM,51.8,48.2,88,30.06,5.0,NNE,5.8,-,N/A,,Overcast,30,2012-10-27 11:29:00
7:55 AM,51.4,47.7,87,30.07,5.0,NNE,6.9,-,N/A,,Overcast,30,2012-10-27 11:55:00
8:55 AM,51.8,46.6,82,30.08,10.0,NNE,6.9,-,N/A,,Overcast,30,2012-10-27 12:55:00
9:47 AM,51.8,46.4,82,30.07,10.0,NE,5.8,-,N/A,,Overcast,40,2012-10-27 13:47:00
9:55 AM,52.3,46.4,80,30.07,10.0,NNE,6.9,-,N/A,,Overcast,30,2012-10-27 13:55:00
10:55 AM,52.5,46.9,81,30.06,10.0,ENE,5.8,-,N/A,,Overcast,60,2012-10-27 14:55:00
11:38 AM,53.6,48.2,82,30.06,10.0,ENE,3.5,-,N/A,,Overcast,70,2012-10-27 15:38:00
11:55 AM,54.0,47.7,79,30.05,10.0,Calm,Calm,-,N/A,,Overcast,0,2012-10-27 15:55:00
12:55 PM,57.2,49.5,75,30.01,10.0,Variable,3.5,-,N/A,,Mostly Cloudy,0,2012-10-27 16:55:00
1:00 PM,57.2,50.0,77,30.01,10.0,Variable,3.5,-,N/A,,Scattered Clouds,0,2012-10-27 17:00:00
2:55 PM,59.0,51.8,77,29.96,7.0,North,6.9,-,N/A,,Overcast,350,2012-10-27 18:55:00
3:55 PM,58.5,51.8,79,29.84,7.0,North,5.8,-,N/A,,Overcast,360,2012-10-27 19:55:00
4:55 PM,56.7,51.4,83,29.98,10.0,North,5.8,-,N/A,,Overcast,10,2012-10-27 20:55:00
5:55 PM,54.5,51.1,88,29.98,10.0,Variable,5.8,-,N/A,,Overcast,0,2012-10-27 21:55:00
9:32 PM,48.2,48.2,100,30.02,10.0,NNW,8.1,-,N/A,,Overcast,340,2012-10-28 01:32:00
9:55 PM,47.7,47.7,100,30.03,10.0,North,5.8,-,N/A,,Overcast,350,2012-10-28 01:55:00
10:22 PM,46.4,46.4,100,30.03,8.0,NNW,5.8,-,N/A,,Overcast,340,2012-10-28 02:22:00
10:23 PM,46.4,46.4,100,30.03,8.0,North,5.8,-,N/A,,Light Drizzle,360,2012-10-28 02:23:00
10:32 PM,46.4,46.4,100,30.03,7.0,NNW,6.9,-,N/A,,Overcast,330,2012-10-28 02:32:00
10:55 PM,46.4,46.4,100,30.04,4.0,Variable,5.8,-,0.00,,Overcast,0,2012-10-28 02:55:00
10:59 PM,46.4,46.4,100,30.04,3.0,North,5.8,-,N/A,,Overcast,350,2012-10-28 02:59:00
11:00 PM,46.4,46.4,100,30.04,3.0,North,5.8,-,N/A,,Overcast,350,2012-10-28 03:00:00
11:01 PM,46.4,46.4,100,30.04,2.5,Variable,5.8,-,N/A,,Overcast,0,2012-10-28 03:01:00
11:07 PM,46.4,46.4,100,30.04,3.0,North,5.8,-,N/A,,Overcast,350,2012-10-28 03:07:00
11:11 PM,46.4,46.4,100,30.04,4.0,North,6.9,-,N/A,,Overcast,350,2012-10-28 03:11:00
11:23 PM,46.4,46.4,100,30.04,5.0,North,5.8,-,N/A,,Overcast,350,2012-10-28 03:23:00
11:32 PM,46.4,46.4,100,30.04,4.0,North,4.6,-,N/A,,Overcast,350,2012-10-28 03:32:00
11:39 PM,46.4,46.4,100,30.04,3.0,Variable,5.8,-,N/A,,Overcast,0,2012-10-28 03:39:00
11:42 PM,46.4,46.4,100,30.04,3.0,North,4.6,-,N/A,,Overcast,350,2012-10-28 03:42:00
11:55 PM,45.1,45.1,100,30.04,6.0,North,8.1,-,N/A,,Overcast,350,2012-10-28 03:55:00